H1 CPF 2 NER 2026 2 2 13 033 01 glonass137 H2 1705501 9137 42939 2026 2 2 0 0 0 2026 2 5 23 45 0 900 1 1 0 0 0 1 H9 10 0 61073 0.00000 0 7384534.307 23357191.180 7159349.396 10 0 61073 900.00000 0 6987755.587 22363677.978 10118265.657 10 0 61073 1800.00000 0 6337043.439 21100899.233 12880932.451 10 0 61073 2700.00000 0 5410386.292 19622775.318 15393767.724 10 0 61073 3600.00000 0 4197382.616 17988602.932 17608028.598 10 0 61073 4500.00000 0 2699944.130 16260587.751 19480752.715 10 0 61073 5400.00000 0 932482.950 14501275.339 20975588.241 10 0 61073 6300.00000 0 -1078426.534 12770987.275 22063496.957 10 0 61073 7200.00000 0 -3294898.436 11125369.144 22723317.215 10 0 61073 8100.00000 0 -5669064.978 9613152.167 22942176.166 10 0 61073 9000.00000 0 -8144831.228 8274221.379 22715743.382 10 0 61073 9900.00000 0 -10659983.580 7138070.490 22048320.807 10 0 61073 10800.00000 0 -13148565.786 6222707.533 20952766.889 10 0 61073 11700.00000 0 -15543425.047 5534056.709 19450255.746 10 0 61073 12600.00000 0 -17778823.173 5065881.244 17569875.182 10 0 61073 13500.00000 0 -19793004.834 4800230.310 15348070.457 10 0 61073 14400.00000 0 -21530616.157 4708391.117 12827943.655 10 0 61073 15300.00000 0 -22944872.757 4752305.956 10058421.496 10 0 61073 16200.00000 0 -23999386.360 4886394.211 7093307.153 10 0 61073 17100.00000 0 -24669573.183 5059702.034 3990234.220 10 0 61073 18000.00000 0 -24943584.580 5218288.209 809543.248 10 0 61073 18900.00000 0 -24822720.517 5307744.415 -2386896.926 10 0 61073 19800.00000 0 -24321308.271 5275742.163 -5536899.481 10 0 61073 20700.00000 0 -23466051.435 5074497.302 -8579177.061 10 0 61073 21600.00000 0 -22294876.854 4663046.454 -11454541.769 10 0 61073 22500.00000 0 -20855328.427 4009237.643 -14107063.408 10 0 61073 23400.00000 0 -19202575.983 3091349.675 -16485162.643 10 0 61073 24300.00000 0 -17397123.612 1899270.624 -18542617.251 10 0 61073 25200.00000 0 -15502314.367 435184.682 -20239461.677 10 0 61073 26100.00000 0 -13581736.588 -1286262.505 -21542762.375 10 0 61073 27000.00000 0 -11696640.863 -3238327.762 -22427254.216 10 0 61073 27900.00000 0 -9903475.761 -5383048.992 -22875826.091 10 0 61073 28800.00000 0 -8251645.136 -7672602.309 -22879846.922 10 0 61073 29700.00000 0 -6781580.043 -10051081.503 -22439326.425 10 0 61073 30600.00000 0 -5523204.853 -12456626.129 -21562908.128 10 0 61073 31500.00000 0 -4494860.419 -14823809.956 -20267695.316 10 0 61073 32400.00000 0 -3702727.854 -17086190.801 -18578913.644 10 0 61073 33300.00000 0 -3140775.476 -19178916.083 -16529417.175 10 0 61073 34200.00000 0 -2791229.587 -21041276.032 -14159047.519 10 0 61073 35100.00000 0 -2625547.833 -22619098.768 -11513858.486 10 0 61073 36000.00000 0 -2605852.941 -23866887.905 -8645221.180 10 0 61073 36900.00000 0 -2686765.326 -24749614.046 -5608826.841 10 0 61073 37800.00000 0 -2817556.459 -25244085.911 -2463606.698 10 0 61073 38700.00000 0 -2944531.444 -25339844.371 729410.281 10 0 61073 39600.00000 0 -3013539.664 -25039542.481 3908279.545 10 0 61073 40500.00000 0 -2972507.102 -24358796.148 7011340.086 10 0 61073 41400.00000 0 -2773883.015 -23325512.072 9978407.345 10 0 61073 42300.00000 0 -2376897.378 -21978721.440 12751936.797 10 0 61073 43200.00000 0 -1749533.450 -20366968.347 15278135.855 10 0 61073 44100.00000 0 -870131.845 -18546320.399 17508002.874 10 0 61073 45000.00000 0 271442.125 -16578084.506 19398273.456 10 0 61073 45900.00000 0 1673117.751 -14526322.975 20912256.249 10 0 61073 46800.00000 0 3320454.652 -12455273.063 22020542.522 10 0 61073 47700.00000 0 5187003.126 -10426777.055 22701576.194 10 0 61073 48600.00000 0 7235175.654 -8497829.292 22942073.611 10 0 61073 49500.00000 0 9417594.856 -6718341.650 22737285.023 10 0 61073 50400.00000 0 11678863.355 -5129219.927 22091092.599 10 0 61073 51300.00000 0 13957683.415 -3760830.707 21015942.648 10 0 61073 52200.00000 0 16189239.464 -2631922.095 19532612.764 10 0 61073 53100.00000 0 18307745.350 -1749042.984 17669817.558 10 0 61073 54000.00000 0 20249050.948 -1106484.776 15463659.735 10 0 61073 54900.00000 0 21953199.770 -686747.622 12956936.198 10 0 61073 55800.00000 0 23366830.784 -461511.306 10198311.899 10 0 61073 56700.00000 0 24445323.710 -393069.471 7241376.876 10 0 61073 57600.00000 0 25154597.445 -436166.242 4143604.485 10 0 61073 58500.00000 0 25472485.542 -540156.991 965231.171 10 0 61073 59400.00000 0 25389630.350 -651401.048 -2231920.075 10 0 61073 60300.00000 0 24909857.663 -715784.046 -5385649.050 10 0 61073 61200.00000 0 24050015.756 -681261.912 -8434596.019 10 0 61073 62100.00000 0 22839285.415 -500317.471 -11319443.114 10 0 61073 63000.00000 0 21317990.078 -132224.341 -13984075.161 10 0 61073 63900.00000 0 19535956.397 454978.935 -16376676.519 10 0 61073 64800.00000 0 17550494.556 1282889.194 -18450742.043 10 0 61073 65700.00000 0 15424083.563 2361581.932 -20165982.264 10 0 61073 66600.00000 0 13221859.026 3688947.265 -21489105.143 10 0 61073 67500.00000 0 11009008.854 5250547.242 -22394459.535 10 0 61073 68400.00000 0 8848185.819 7020001.198 -22864528.368 10 0 61073 69300.00000 0 6797044.849 8959883.488 -22890262.559 10 0 61073 70200.00000 0 4906007.213 11023096.554 -22471249.900 10 0 61073 71100.00000 0 3216343.969 13154662.327 -21615716.258 10 0 61073 72000.00000 0 1758657.420 15293857.610 -20340359.586 10 0 61073 72900.00000 0 551822.471 17376604.689 -18670020.372 10 0 61073 73800.00000 0 -397569.531 19338017.923 -16637195.119 10 0 61073 74700.00000 0 -1095242.908 21115000.387 -14281402.392 10 0 61073 75600.00000 0 -1558746.078 22648782.683 -11648413.694 10 0 61073 76500.00000 0 -1816458.504 23887298.252 -8789364.015 10 0 61073 77400.00000 0 -1906139.321 24787296.346 -5759759.210 10 0 61073 78300.00000 0 -1873079.924 25316104.661 -2618399.401 10 0 61073 79200.00000 0 -1767939.367 25452968.231 573760.779 10 0 61073 80100.00000 0 -1644354.636 25189908.825 3754792.954 10 0 61073 81000.00000 0 -1556427.248 24532069.128 6862993.878 10 0 61073 81900.00000 0 -1556192.725 23497527.484 9838079.209 10 0 61073 82800.00000 0 -1691180.105 22116591.037 12622349.072 10 0 61073 83700.00000 0 -2002164.823 20430596.867 15161802.997 10 0 61073 84600.00000 0 -2521210.037 18490271.069 17407182.953 10 0 61073 85500.00000 0 -3270079.413 16353714.047 19314924.596 10 0 61074 0.00000 0 -4259088.675 14084095.870 20847998.701 10 0 61074 900.00000 0 -5486445.627 11747155.920 21976627.709 10 0 61074 1800.00000 0 -6938106.068 9408613.371 22678861.972 10 0 61074 2700.00000 0 -8588154.711 7131591.442 22941007.611 10 0 61074 3600.00000 0 -10399695.443 4974164.767 22757895.666 10 0 61074 4500.00000 0 -12326215.784 2987129.935 22132988.117 10 0 61074 5400.00000 0 -14313370.069 1212091.410 21078318.176 10 0 61074 6300.00000 0 -16301108.427 -320058.142 19614265.400 10 0 61074 7200.00000 0 -18226063.875 -1590200.348 17769169.150 10 0 61074 8100.00000 0 -20024098.774 -2591552.577 15578787.017 10 0 61074 9000.00000 0 -21632904.805 -3329705.355 13085607.741 10 0 61074 9900.00000 0 -22994547.799 -3822134.580 10338031.200 10 0 61074 10800.00000 0 -24057850.661 -4097209.557 7389430.765 10 0 61074 11700.00000 0 -24780513.917 -4192739.169 4297115.925 10 0 61074 12600.00000 0 -25130884.119 -4154118.186 1121215.400 10 0 61074 13500.00000 0 -25089294.937 -4032152.901 -2076497.188 10 0 61074 14400.00000 0 -24648923.713 -3880659.028 -5233811.616 10 0 61074 15300.00000 0 -23816126.681 -3753934.723 -8289298.910 10 0 61074 16200.00000 0 -22610238.272 -3704216.951 -11183514.119 10 0 61074 17100.00000 0 -21062842.596 -3779230.170 -13860159.670 10 0 61074 18000.00000 0 -19216547.712 -4019932.332 -16267185.838 10 0 61074 18900.00000 0 -17123314.294 -4458554.631 -18357806.354 10 0 61074 19800.00000 0 -14842409.036 -5117018.821 -20091409.132 10 0 61074 20700.00000 0 -12438068.856 -6005799.687 -21434344.387 10 0 61074 21600.00000 0 -9976973.780 -7123281.247 -22360575.114 10 0 61074 22500.00000 0 -7525634.133 -8455634.308 -22852177.827 10 0 61074 23400.00000 0 -5147800.845 -9977220.923 -22899684.425 10 0 61074 24300.00000 0 -2902006.332 -11651509.137 -22502259.254 10 0 61074 25200.00000 0 -839337.578 -13432460.023 -21667708.554 10 0 61074 26100.00000 0 998466.921 -15266329.268 -20412322.646 10 0 61074 27000.00000 0 2580518.435 -17093808.238 -18760554.286 10 0 61074 27900.00000 0 3887816.510 -18852415.350 -16744539.670 10 0 61074 28800.00000 0 4913783.041 -20479038.054 -14403471.449 10 0 61074 29700.00000 0 5664271.382 -21912519.438 -11782835.916 10 0 61074 30600.00000 0 6157051.820 -23096181.539 -8933529.036 10 0 61074 31500.00000 0 6420796.618 -23980179.976 -5910868.426 10 0 61074 32400.00000 0 6493608.705 -24523591.534 -2773520.339 10 0 61074 33300.00000 0 6421157.159 -24696147.390 417637.553 10 0 61074 34200.00000 0 6254499.014 -24479539.457 3600695.526 10 0 61074 35100.00000 0 6047680.033 -23868245.134 6713910.392 10 0 61074 36000.00000 0 5855216.210 -22869835.892 9696900.122 10 0 61074 36900.00000 0 5729562.713 -21504756.630 12491811.363 10 0 61074 37800.00000 0 5718677.298 -19805584.844 15044437.387 10 0 61074 38700.00000 0 5863781.255 -17815800.201 17305265.121 10 0 61074 39600.00000 0 6197412.451 -15588115.480 19230431.310 10 0 61074 40500.00000 0 6741852.854 -13182437.856 20782569.790 10 0 61074 41400.00000 0 7507997.173 -10663544.749 21931533.958 10 0 61074 42300.00000 0 8494710.928 -8098570.113 22654980.883 10 0 61074 43200.00000 0 9688705.822 -5554404.797 22938806.080 10 0 61074 44100.00000 0 11064938.892 -3095118.035 22777420.669 10 0 61074 45000.00000 0 12587520.062 -779506.302 22173865.439 10 0 61074 45900.00000 0 14211091.569 1341129.470 21139759.247 10 0 61074 46800.00000 0 15882622.980 3224886.696 19695082.133 10 0 61074 47700.00000 0 17543547.969 4840765.395 17867796.562 10 0 61074 48600.00000 0 19132154.440 6169711.769 15693313.200 10 0 61074 49500.00000 0 20586128.613 7205158.067 13213810.669 10 0 61074 50400.00000 0 21845146.696 7953036.566 10477421.682 10 0 61074 51300.00000 0 22853405.348 8431267.620 7537300.716 10 0 61074 52200.00000 0 23561984.165 8668743.843 4450591.050 10 0 61074 53100.00000 0 23930940.097 8703853.882 1277311.233 10 0 61074 54000.00000 0 23931044.767 8582608.895 -1920816.972 10 0 61074 54900.00000 0 23545090.471 8356451.863 -5081575.803 10 0 61074 55800.00000 0 22768708.933 8079843.468 -8143469.438 10 0 61074 56700.00000 0 21610667.439 7807727.933 -11046928.070 10 0 61074 57600.00000 0 20092629.260 7592987.272 -13735473.732 10 0 61074 58500.00000 0 18248387.995 7483992.882 -16156824.362 10 0 61074 59400.00000 0 16122607.809 7522359.096 -18263914.054 10 0 61074 60300.00000 0 13769122.327 7740994.544 -20015809.352 10 0 61074 61200.00000 0 11248863.529 8162534.289 -21378503.744 10 0 61074 62100.00000 0 8627507.291 8798219.367 -22325575.202 10 0 61074 63000.00000 0 5972933.841 9647271.276 -22838694.475 10 0 61074 63900.00000 0 3352608.860 10696787.916 -22907974.887 10 0 61074 64800.00000 0 830993.846 11922165.486 -22532157.544 10 0 61074 65700.00000 0 -1532907.142 13288028.738 -21718628.984 10 0 61074 66600.00000 0 -3687763.278 14749630.655 -20483271.476 10 0 61074 67500.00000 0 -5591804.306 16254662.998 -18850149.274 10 0 61074 68400.00000 0 -7214302.333 17745402.042 -16851037.111 10 0 61074 69300.00000 0 -8536587.890 19161099.734 -14524800.216 10 0 61074 70200.00000 0 -9552559.617 20440520.275 -11916637.813 10 0 61074 71100.00000 0 -10268667.979 21524515.982 -9077204.691 10 0 61074 72000.00000 0 -10703375.368 22358534.544 -6061627.817 10 0 61074 72900.00000 0 -10886116.810 22894952.590 -2928436.976 10 0 61074 73800.00000 0 -10855806.303 23095137.713 261569.894 10 0 61074 74700.00000 0 -10658952.798 22931152.337 3446504.579 10 0 61074 75600.00000 0 -10347466.108 22387027.856 6564586.856 10 0 61074 76500.00000 0 -9976245.907 21459555.367 9555339.915 10 0 61074 77400.00000 0 -9600655.989 20158559.561 12360759.769 10 0 61074 78300.00000 0 -9273990.572 18506643.894 14926436.170 10 0 61074 79200.00000 0 -9045039.652 16538417.142 17202603.578 10 0 61074 80100.00000 0 -8955856.086 14299233.012 19145102.194 10 0 61074 81000.00000 0 -9039818.571 11843494.582 20716230.899 10 0 61074 81900.00000 0 -9320072.189 9232593.283 21885476.120 10 0 61074 82800.00000 0 -9808412.470 6532567.172 22630102.918 10 0 61074 83700.00000 0 -10504660.379 3811574.771 22935597.213 10 0 61074 84600.00000 0 -11396555.277 1137288.246 22795950.750 10 0 61074 85500.00000 0 -12460171.332 -1425686.851 22213783.149 10 0 61075 0.00000 0 -13660840.978 -3818258.941 21200298.493 10 0 61075 900.00000 0 -14954548.583 -5989065.357 19775076.038 10 0 61075 1800.00000 0 -16289735.473 -7896360.320 17965699.755 10 0 61075 2700.00000 0 -17609443.747 -9509502.223 15807231.204 10 0 61075 3600.00000 0 -18853708.146 -10809975.466 13341536.235 10 0 61075 4500.00000 0 -19962096.525 -11791905.890 10616477.349 10 0 61075 5400.00000 0 -20876292.110 -12462048.439 7684986.806 10 0 61075 6300.00000 0 -21542608.531 -12839248.040 4604038.151 10 0 61075 7200.00000 0 -21914331.024 -12953396.969 1433536.165 10 0 61075 8100.00000 0 -21953784.205 -12843933.347 -1764852.856 10 0 61075 9000.00000 0 -21634038.134 -12557945.010 -4928907.137 10 0 61075 9900.00000 0 -20940179.544 -12147959.872 -7997067.405 10 0 61075 10800.00000 0 -19870093.586 -11669517.356 -10909642.205 10 0 61075 11700.00000 0 -18434722.164 -11178624.747 -13609976.145 10 0 61075 12600.00000 0 -16657787.251 -10729207.222 -16045557.484 10 0 61075 13500.00000 0 -14574990.256 -10370660.353 -18169042.943 10 0 61075 14400.00000 0 -12232720.686 -10145609.379 -19939179.491 10 0 61075 15300.00000 0 -9686328.009 -10087970.422 -21321605.145 10 0 61075 16200.00000 0 -6998028.842 -10221395.833 -22289513.499 10 0 61075 17100.00000 0 -4234536.671 -10558169.299 -22824169.565 10 0 61075 18000.00000 0 -1464512.711 -11098597.215 -22915267.515 10 0 61075 18900.00000 0 1244056.403 -11830921.773 -22561124.080 10 0 61075 19800.00000 0 3826445.605 -12731759.206 -21768704.480 10 0 61075 20700.00000 0 6223636.311 -13767044.597 -20553480.924 10 0 61075 21600.00000 0 8384518.698 -14893443.396 -18939126.820 10 0 61075 22500.00000 0 10267760.995 -16060170.329 -16957052.848 10 0 61075 23400.00000 0 11843269.405 -17211139.255 -14645793.994 10 0 61075 24300.00000 0 13093179.369 -18287353.757 -12050259.420 10 0 61075 25200.00000 0 14012338.431 -19229438.071 -9220859.604 10 0 61075 26100.00000 0 14608262.115 -19980202.082 -6212527.632 10 0 61075 27000.00000 0 14900566.226 -20487132.573 -3083653.528 10 0 61075 27900.00000 0 14919900.821 -20704705.990 105047.755 10 0 61075 28800.00000 0 14706431.877 -20596425.355 3291712.678 10 0 61075 29700.00000 0 14307935.568 -20136495.566 6414526.960 10 0 61075 30600.00000 0 13777586.191 -19311066.350 9412921.726 10 0 61075 31500.00000 0 13171531.455 -18118990.317 12228744.746 10 0 61075 32400.00000 0 12546357.675 -16572063.751 14807384.245 10 0 61075 33300.00000 0 11956551.744 -14694739.374 17098823.799 10 0 61075 34200.00000 0 11452066.819 -12523322.259 19058608.189 10 0 61075 35100.00000 0 11076094.081 -10104681.472 20648702.016 10 0 61075 36000.00000 0 10863134.226 -7494530.066 21838224.953 10 0 61075 36900.00000 0 10837449.771 -4755343.785 22604049.833 10 0 61075 37800.00000 0 11011963.326 -1954003.789 22931252.350 10 0 61075 38700.00000 0 11387648.459 840740.033 22813403.858 10 0 61075 39600.00000 0 11953439.248 3560881.014 22252701.468 10 0 61075 40500.00000 0 12686663.094 6141735.674 21259932.647 10 0 61075 41400.00000 0 13553979.511 8524385.570 19854274.364 10 0 61075 42300.00000 0 14512786.422 10657880.326 18062929.920 10 0 61075 43200.00000 0 15513035.779 12501110.858 15920609.574 10 0 61075 44100.00000 0 16499382.952 14024275.220 13468864.098 10 0 61075 45000.00000 0 17413579.880 15209876.203 10755283.382 10 0 61075 45900.00000 0 18197011.402 16053209.323 7832574.987 10 0 61075 46800.00000 0 18793267.630 16562321.041 4757540.204 10 0 61075 47700.00000 0 19150643.263 16757439.413 1589967.503 10 0 61075 48600.00000 0 19224457.500 16669901.661 -1608534.791 10 0 61075 49500.00000 0 18979095.486 16340624.609 -4775743.300 10 0 61075 50400.00000 0 18389683.855 15818183.402 -7850037.555 10 0 61075 51300.00000 0 17443328.391 15156580.657 -10771606.489 10 0 61075 52200.00000 0 16139860.456 14412801.419 -13483619.057 10 0 61075 53100.00000 0 14492059.662 13644258.294 -15933335.336 10 0 61075 54000.00000 0 12525342.601 12906235.699 -18073135.907 10 0 61075 54900.00000 0 10276930.036 12249441.925 -19861449.158 10 0 61075 55800.00000 0 7794526.978 11717772.885 -21263558.429 10 0 61075 56700.00000 0 5134570.541 11346382.123 -22252273.571 10 0 61075 57600.00000 0 2360118.410 11160138.365 -22808454.336 10 0 61075 58500.00000 0 -461534.334 11172535.359 -22921376.059 10 0 61075 59400.00000 0 -3261411.204 11385099.406 -22588931.204 10 0 61075 60300.00000 0 -5971477.364 11787318.994 -21817663.517 10 0 61075 61200.00000 0 -8527221.395 12357098.941 -20622634.680 10 0 61075 62100.00000 0 -10870089.371 13061719.420 -19027126.448 10 0 61075 63000.00000 0 -12949671.147 13859259.145 -17062184.279 10 0 61075 63900.00000 0 -14725549.112 14700422.527 -14766011.426 10 0 61075 64800.00000 0 -16168733.769 15530693.735 -12183225.206 10 0 61075 65700.00000 0 -17262627.725 16292726.892 -9363989.771 10 0 61075 66600.00000 0 -18003479.275 16928871.691 -6363042.127 10 0 61075 67500.00000 0 -18400308.032 17383728.016 -3238630.208 10 0 61075 68400.00000 0 -18474307.110 17606621.897 -51383.547 10 0 61075 69300.00000 0 -18257748.149 17553898.361 3136861.498 10 0 61075 70200.00000 0 -17792436.253 17190934.416 6264259.169 10 0 61075 71100.00000 0 -17127780.683 16493787.133 9270151.137 10 0 61075 72000.00000 0 -16318563.060 15450407.061 12096239.555 10 0 61075 72900.00000 0 -15422497.425 14061365.416 14687713.736 10 0 61075 73800.00000 0 -14497684.963 12340063.767 16994308.891 10 0 61075 74700.00000 0 -13600070.437 10312416.519 18971276.770 10 0 61075 75600.00000 0 -12781007.107 8016018.355 20580249.874 10 0 61075 76500.00000 0 -12085032.178 5498830.124 21789983.034 10 0 61075 77400.00000 0 -11547945.964 2817436.555 22576958.425 10 0 61075 78300.00000 0 -11195275.178 34946.875 22925842.711 10 0 61075 79200.00000 0 -11041184.786 -2781375.958 22829787.606 10 0 61075 80100.00000 0 -11087884.178 -5562660.261 22290568.004 10 0 61075 81000.00000 0 -11325552.883 -8241040.551 21318554.662 10 0 61075 81900.00000 0 -11732789.416 -10752234.936 19932521.374 10 0 61075 82800.00000 0 -12277565.000 -13037978.727 18159289.632 10 0 61075 83700.00000 0 -12918642.711 -15048213.789 16033216.710 10 0 61075 84600.00000 0 -13607402.899 -16742942.860 13595536.186 10 0 61075 85500.00000 0 -14289998.435 -18093671.791 10893562.847 10 0 61076 0.00000 0 -14909749.010 -19084379.505 7979777.039 10 0 61076 900.00000 0 -15409673.633 -19711975.700 4910804.261 10 0 61076 1800.00000 0 -15735053.056 -19986226.005 1746313.765 10 0 61076 2700.00000 0 -15835914.152 -19929149.851 -1452147.341 10 0 61076 3600.00000 0 -15669329.305 -19573915.479 -4622357.365 10 0 61076 4500.00000 0 -15201432.702 -18963279.914 -7702637.918 10 0 61076 5400.00000 0 -14409066.940 -18147640.475 -10633061.547 10 0 61076 6300.00000 0 -13280989.091 -17182781.007 -13356624.672 10 0 61076 7200.00000 0 -11818584.143 -16127408.963 -15820362.127 10 0 61076 8100.00000 0 -10036054.691 -15040588.213 -17976381.021 10 0 61076 9000.00000 0 -7960078.003 -13979176.653 -19782793.472 10 0 61076 9900.00000 0 -5628944.132 -12995377.176 -21204530.007 10 0 61076 10800.00000 0 -3091210.604 -12134505.404 -22214018.076 10 0 61076 11700.00000 0 -403929.416 -11433068.089 -22791712.955 10 0 61076 12600.00000 0 2369480.101 -10917232.631 -22926471.353 10 0 61076 13500.00000 0 5161624.390 -10601751.453 -22615761.142 10 0 61076 14400.00000 0 7903695.726 -10489385.621 -21865703.782 10 0 61076 15300.00000 0 10528093.330 -10570851.060 -20690949.173 10 0 61076 16200.00000 0 12970997.405 -10825288.727 -19114385.773 10 0 61076 17100.00000 0 15174789.936 -11221238.140 -17166691.811 10 0 61076 18000.00000 0 17090222.561 -11718072.595 -14885736.445 10 0 61076 18900.00000 0 18678242.386 -12267835.096 -12315842.444 10 0 61076 19800.00000 0 19911400.837 -12817397.243 -9506924.597 10 0 61076 20700.00000 0 20774787.968 -13310849.769 -6513520.503 10 0 61076 21600.00000 0 21266454.443 -13692023.732 -3393732.445 10 0 61076 22500.00000 0 21397304.713 -13907035.811 -208100.843 10 0 61076 23400.00000 0 21190467.032 -13906750.177 2981568.844 10 0 61076 24300.00000 0 20680167.711 -13649052.887 6113402.973 10 0 61076 25200.00000 0 19910157.762 -13100842.607 9126657.118 10 0 61076 26100.00000 0 18931758.644 -12239653.391 11962890.821 10 0 61076 27000.00000 0 17801609.677 -11054840.676 14567097.043 10 0 61076 27900.00000 0 16579211.927 -9548279.889 16888764.716 10 0 61076 28800.00000 0 15324371.732 -7734547.433 18882854.130 10 0 61076 29700.00000 0 14094650.947 -5640575.328 20510666.745 10 0 61076 30600.00000 0 12942930.547 -3304792.599 21740593.101 10 0 61076 31500.00000 0 11915189.314 -775787.783 22548724.805 10 0 61076 32400.00000 0 11048590.281 1889453.314 22919319.102 10 0 61076 33300.00000 0 10369954.725 4627662.920 22845107.273 10 0 61076 34200.00000 0 9894687.401 7371673.270 22327440.794 10 0 61076 35100.00000 0 9626197.953 10052967.745 21376272.152 10 0 61076 36000.00000 0 9555842.813 12604296.484 20009970.102 10 0 61076 36900.00000 0 9663390.236 14962248.716 18254972.191 10 0 61076 37800.00000 0 9917989.217 17069675.575 16145280.353 10 0 61076 38700.00000 0 10279601.834 18877862.974 13721808.436 10 0 61076 39600.00000 0 10700838.932 20348364.087 11031593.454 10 0 61076 40500.00000 0 11129121.785 21454414.935 8126885.225 10 0 61076 41400.00000 0 11509078.312 22181873.804 5064131.668 10 0 61076 42300.00000 0 11785072.137 22529645.001 1902879.461 10 0 61076 43200.00000 0 11903756.768 22509569.241 -1295388.313 10 0 61076 44100.00000 0 11816545.834 22145785.452 -4468454.332 10 0 61076 45000.00000 0 11481893.633 21473591.276 -7554584.781 10 0 61076 45900.00000 0 10867288.184 20537850.887 -10493738.060 10 0 61076 46800.00000 0 9950871.144 19391017.995 -13228739.992 10 0 61076 47700.00000 0 8722614.876 18090858.264 -15706401.785 10 0 61076 48600.00000 0 7185005.789 16697967.976 -17878558.392 10 0 61076 49500.00000 0 5353204.120 15273194.229 -19703006.695 10 0 61076 50400.00000 0 3254672.551 13875065.841 -21144325.206 10 0 61076 51300.00000 0 928288.464 12557343.288 -22174559.552 10 0 61076 52200.00000 0 -1577023.620 11366790.600 -22773760.921 10 0 61076 53100.00000 0 -4204082.857 10341262.400 -22930367.572 10 0 61076 54000.00000 0 -6889591.942 9508185.730 -22641422.711 10 0 61076 54900.00000 0 -9566537.466 8883499.346 -21912625.143 10 0 61076 55800.00000 0 -12166751.393 8471093.929 -20758212.287 10 0 61076 56700.00000 0 -14623527.790 8262775.472 -19200678.240 10 0 61076 57600.00000 0 -16874186.706 8238752.168 -17270332.596 10 0 61076 58500.00000 0 -18862479.305 8368623.232 -15004708.705 10 0 61076 59400.00000 0 -20540735.020 8612827.072 -12447832.821 10 0 61076 60300.00000 0 -21871662.173 8924487.029 -9649368.230 10 0 61076 61200.00000 0 -22829727.899 9251576.244 -6663650.859 10 0 61076 62100.00000 0 -23402060.726 9539309.867 -3548635.016 10 0 61076 63000.00000 0 -23588839.034 9732663.270 -364769.624 10 0 61076 63900.00000 0 -23403150.063 9778909.657 2826173.164 10 0 61076 64800.00000 0 -22870326.253 9630069.669 5962294.261 10 0 61076 65700.00000 0 -22026787.474 9245169.271 8982765.619 10 0 61076 66600.00000 0 -20918438.342 8592210.349 11829006.647 10 0 61076 67500.00000 0 -19598688.253 7649770.459 14445816.411 10 0 61076 68400.00000 0 -18126177.408 6408163.743 16782439.935 10 0 61076 69300.00000 0 -16562304.160 4870113.405 18793548.270 10 0 61076 70200.00000 0 -14968657.088 3050906.436 20440113.838 10 0 61076 71100.00000 0 -13404458.933 978022.821 21690164.611 10 0 61076 72000.00000 0 -11924128.867 -1309746.730 22519402.998 10 0 61076 72900.00000 0 -10575064.488 -3763659.364 22911677.834 10 0 61076 73800.00000 0 -9395735.678 -6326800.079 22859300.565 10 0 61076 74700.00000 0 -8414169.549 -8936210.703 22363199.446 10 0 61076 75600.00000 0 -7646889.410 -11525280.915 21432908.483 10 0 61076 76500.00000 0 -7098351.868 -14026303.288 20086390.777 10 0 61076 77400.00000 0 -6760905.525 -16373087.180 18349698.919 10 0 61076 78300.00000 0 -6615272.933 -18503523.529 16256478.122 10 0 61076 79200.00000 0 -6631535.556 -20361994.212 13847320.773 10 0 61076 80100.00000 0 -6770580.307 -21901525.594 11168984.075 10 0 61076 81000.00000 0 -6985946.588 -23085596.291 8273485.290 10 0 61076 81900.00000 0 -7225995.620 -23889523.227 5217091.742 10 0 61076 82800.00000 0 -7436309.903 -24301367.609 2059225.128 10 0 61076 83700.00000 0 -7562220.595 -24322322.540 -1138698.261 10 0 61076 84600.00000 0 -7551354.861 -23966565.825 -4314468.331 10 0 61076 85500.00000 0 -7356094.152 -23260584.251 -7406298.772 99